Flag for United Kingdom Weather past 2 weeks in Silverstone, England, United Kingdom

Now
55 °F

Clear.


Feels Like: 55 °F
Forecast: 54 / 62 °F
Wind: 5 mph from South

Location: Luton Airport

Current Time: Aug 29, 2015 at 7:39:33 AM

Latest Report: Aug 29, 2015 at 6:50 AM


Visibility: 10 mi

Pressure: 30.12 "Hg

Humidity: 94%

Dew point: 54 °F

Location of SilverstoneLocation

Historic Weather in Silverstone — Graph

°F

Silverstone temperature yesterday

Maximum temperature yesterday: 68 °F (at 3:20 PM)
Minimum temperature yesterday: 46 °F (at 3:20 AM)
Average temperature yesterday: 57 °F

Past Weeks' High & Low Weather Summary

 TemperatureHumidityPressure
High84 °F (Aug 22, 2:20 PM)100% (Aug 14, 6:20 AM)30.12 "Hg (Aug 14, 6:20 AM)
Low46 °F (Aug 28, 3:20 AM)37% (Aug 22, 4:50 PM)29.45 "Hg (Aug 24, 12:50 PM)
Average61 °F81%29.87 "Hg
* Reported Aug 14 6:20 AM — Aug 29 6:20 AM, Silverstone, Weather by CustomWeather, © 2015

Note: Actual official high and low records may vary slightly from our data, if they occured in-between our weather recording intervals... More about our weather records

Advertising

Silverstone weather history for previous 24 hours

 ConditionsComfort  
Time TempWeatherWind HumidityBarometerVisibility
6:20 AM
Sat, Aug 29
55 °FPassing clouds.5 mph94%30.12 "HgN/A
5:50 AM55 °FPassing clouds.5 mph94%30.12 "HgN/A
5:20 AM54 °FCool.5 mph100%30.09 "HgN/A
4:50 AM55 °FPassing clouds.3 mph94%30.12 "HgN/A
4:20 AM55 °FPassing clouds.6 mph94%30.09 "HgN/A
3:50 AM55 °FClear.6 mph94%30.12 "Hg10 mi
3:20 AM55 °FClear.6 mph94%30.12 "Hg10 mi
2:50 AM55 °FPassing clouds.5 mph94%30.09 "HgN/A
2:20 AM55 °FPassing clouds.5 mph94%30.09 "HgN/A
1:50 AM55 °FClear.6 mph94%30.09 "Hg10 mi
1:20 AM55 °FPassing clouds.6 mph94%30.09 "HgN/A
12:50 AM55 °FClear.6 mph94%30.09 "Hg10 mi
12:20 AM57 °FPassing clouds.6 mph88%30.12 "HgN/A
11:50 PM
Fri, Aug 28
57 °FPassing clouds.6 mph88%30.09 "HgN/A
11:20 PM57 °FCool.7 mph88%30.09 "HgN/A
10:50 PM57 °FPassing clouds.6 mph82%30.09 "HgN/A
10:20 PM57 °FPassing clouds.5 mph82%30.09 "HgN/A
9:50 PM59 °FPassing clouds.7 mph77%30.09 "HgN/A
9:20 PM59 °FPassing clouds.5 mph77%30.07 "HgN/A
8:50 PM59 °FSunny.5 mph77%30.07 "Hg10 mi
8:20 PM61 °FScattered clouds.5 mph72%30.07 "HgN/A
7:50 PM61 °FPassing clouds.6 mph72%30.07 "HgN/A
7:20 PM61 °FPartly sunny.6 mph72%30.04 "HgN/A
6:50 PM63 °FPassing clouds.6 mph68%30.04 "HgN/A
6:20 PM63 °FPassing clouds.8 mph64%30.04 "HgN/A
5:50 PM64 °FPassing clouds.7 mph60%30.04 "HgN/A
5:20 PM63 °FScattered clouds.9 mph64%30.04 "HgN/A
4:50 PM64 °FPassing clouds.10 mph60%30.04 "HgN/A
4:20 PM64 °FPartly sunny.12 mph60%30.01 "HgN/A
3:50 PM64 °FPassing clouds.14 mph60%30.01 "HgN/A
3:20 PM68 °FScattered clouds.15 mph49%30.01 "HgN/A
2:50 PM64 °FScattered clouds.12 mph56%30.01 "HgN/A
2:20 PM64 °FScattered clouds.9 mph60%30.01 "HgN/A
1:50 PM63 °FScattered clouds.13 mph59%30.01 "HgN/A
1:20 PM63 °FScattered clouds.13 mph59%30.01 "HgN/A
12:50 PM63 °FScattered clouds.15 mph59%30.01 "HgN/A
12:20 PM66 °FScattered clouds.13 mph56%30.01 "HgN/A
11:50 AM61 °FScattered clouds.14 mph63%30.01 "HgN/A
11:20 AM63 °FScattered clouds.12 mph64%30.01 "HgN/A
10:50 AM63 °FScattered clouds.10 mph68%30.01 "HgN/A
10:20 AM61 °FPassing clouds.12 mph72%29.98 "HgN/A
9:50 AM59 °FPassing clouds.12 mph82%29.98 "HgN/A
9:20 AM57 °FPassing clouds.9 mph88%29.98 "HgN/A
8:50 AM55 °FPassing clouds.6 mph88%29.98 "HgN/A
8:20 AM54 °FSunny.5 mph94%29.95 "Hg10 mi
7:50 AM52 °FSunny.3 mph94%29.95 "Hg10 mi
7:20 AM50 °FSunny.5 mph100%29.95 "Hg10 mi
Weather by CustomWeather, © 2015

See weather overviewHow to use our weather pages